Location: Norton
(51.3000°N, 0.8167°E)
Time: 12:37:31
(UTC+00:00)

Cosmos 1666 - Pass Details

Date: 03 March 2021
Orbit: 497 x 518 km, 82.5° (Epoch: 10 April)

Event Time Altitude Azimuth Distance (km) Brightness Sun altitude
Rises 20:04:56 0° 205° (SSW) 2,577 6.3 -23.0°
Reaches altitude 10° 20:07:06 10° 211° (SSW) 1,699 5.4 -23.3°
Maximum altitude 20:10:41 44° 285° (WNW) 701 3.7 -23.8°
Drops below altitude 10° 20:14:18 10° 359° (N) 1,720 5.6 -24.3°
Sets 20:16:31 0° 6° (N) 2,612 6.5 -24.7°
